Orbital Elements at Epoch 2459200.5 (2020-Dec-17.0) TDB
Reference: JPL 19 (heliocentric ecliptic J2000)
Element | Value | Uncertainty (1-sigma) | Units |
e | .2114220642767416 | 5.6589e-08 | |
a | 2.589680987888522 | 1.1615e-08 | au |
q | 2.042165287610899 | 1.4296e-07 | au |
i | 12.65745469178968 | 5.7741e-06 | deg |
node | 70.531538884623 | 2.0741e-05 | deg |
peri | 332.4158493395934 | 2.4051e-05 | deg |
M | 28.0948913195947 | 1.4586e-05 | deg |
tp | 2459081.706498058839 (2020-Aug-20.20649806) | 6.1316e-05 | TDB |
period | 1522.186372331367 4.17 | 1.0241e-05 2.804e-08 | d yr |
n | .2365019202271712 | 1.5911e-09 | deg/d |
Q | 3.137196688166144 | 1.4071e-08 | au |
|
| | Orbit Determination Parameters
Additional Information
|